STARLINK-34166, 64158

Orbit data source: Space-Track

STARLINK-34166, 64158 is a payload satellite owned by SpaceX/Seattle (US) in SSO that was launched on Tue, 27 May 2025 UTC via an FALCON 9 launch vehicle from the Air Force Western Test Range (AFWTR). Payload-class satellites include a variety of spacecraft equipped with specific instruments for various scientific and technological missions. These include communications satellites like Starlink; space stations such as the ISS; scientific satellites like the Hubble; Earth observation satellites from companies like Planet Labs, Umbra, and HawkEye 360; GPS; miniature CubeSats for education and research; and military/defense satellites.

Loading next visibility...
Identifier
64158, 2025-112N
Orbit
SSO
Country
Flag of USUS
Related business
Manufacturer
SpaceX/Seattle
Mission
Operational Commercial Communications
Bus & Motor
STARLINK V2MO, Unknown motor
Mass
575 kg wet, ~530 kg dry
Launch date (UTC)
2025-05-27 (1 year ago)
Launch vehicle
FALCON 9
Launch site
Air Force Western Test Range (AFWTR)
Object type
Payload
Rocket body
Debris
Shape & HBR
Box + 1 Pan, 17.7 m
Radar Cross Section
41.120 m², Large (>1 m²)

Expand to show TLE details & history
Last TLE update: 2 days ago

TLE from 2 days ago
0 STARLINK-34166
1 64158U 25112N   26235.57346451  .00013294  00000-0  41325-3 0  9995
2 64158  97.2852 282.9755 0000703 206.0067 154.1140 15.33456233 68463
Epoch: 2026-08-23T13:45Z
TLE epoch observation values (Epoch: 2026-08-23T13:45:47.333Z)
Latitude
-0.00009°
Longitude
104.66071°
Altitude
469.055 km
Speed
7.631 km/s
True Right ascension
18h 51m 54s
True Declination
0° 00' 00"
Sunlit
Object was in full shadow at epoch
Visualization orbit readout
Latitude
Unknown
Longitude
Unknown
Altitude
Unknown
Speed
Unknown
Apparent Right ascension
Unknown
Apparent Declination
Unknown
Sunlit
N/A
Visualization observer readout
Local Sidereal Time
18:44:46
Azimuth
Unknown
Elevation
Unknown
Doppler factor
Unknown
Orbital elements
Apogee altitude
462.933 km
Perigee altitude
461.972 km
Semi-major axis
6,840.59 km
Eccentricity
0.00007
Inclination
97.2852°
RAAN
282.9755°
Arg. of periapsis
206.0067°
True anomaly
154.11752°
Mean anomaly
154.114°
Eccentric anomaly
154.11576°
Mean motion
3.83621 °/min
Orbital period
93.84 mins
BSTAR
0.00041325
Loading maneuver chart data...
Computing Atmospheric mass density...
Loading historical data...
Loading historical data...
Loading historical data...
Loading historical data...
Loading historical data...
Loading historical data...
Loading historical data...

Documentation

Showing up to 5 results
|